GLOBALSTAR M085

Last updated on Sat Sep 05 2026 00:03:16 GMT+0000 (Coordinated Universal Time)

1 37742U 11033D 26247.63338943 -.00000088 00000+0 86778-4 0 9997 2 37742 52.0140 311.4114 0000669 116.0967 47.1667 12.62264986699824
UTC large
Height (km)
Speed (km/s)
/
Latitude / Longitude
Inclination (degrees)
Orbital Period (minutes)
Azimuth
Elevation
Range (km)
Doppler Factor

Next 0 passes for location: London (51.5072 / 0.1276)

No passes found over London.
GLOBALSTAR M085